Hourly Data Report for October 14, 2013

All times are specified in Local Standard Time (LST). Add 1 hour to adjust for Daylight Saving Time where and when it is observed.

PANGNIRTUNG
NUNAVUT

66°08'36.300" N
65°42'40.500" W
22.60 m
2403049
71826
WXP

Download Data

Hourly Data (October 2013)
Hourly Data Report for October 14, 2013
Temp Definition
°C
Dew Point Temp Definition
°C
Rel Hum Definition
%
Wind Dir Definition
10's deg

Wind Spd Definition
km/h
Visibility Definition
km
Stn Press Definition
kPa
Hmdx Definition


Wind Chill Definition


Weather Definition


TIME
00:00 9.4 -2.1 44 11 26   100.53     LegendNANA
01:00 9.6 -3.4 40 13 26   100.52     LegendNANA
02:00 8.4 -2.6 46 10 17   100.52     LegendNANA
03:00 8.8 -2.5 45 12 20   100.49     LegendNANA
04:00 8.3 -2.0 48 12 22   100.46     LegendNANA
05:00 9.7 -1.6 45 13 20   100.46     LegendNANA
06:00 7.3 -1.7 53 9 17   100.44     LegendNANA
07:00 8.5 -2.3 47 10 22   100.38     LegendNANA
08:00 9.2 -2.2 45 7 7   100.40     LegendNANA
09:00 8.2 -1.4 51 7 6   100.38     LegendNANA
10:00 9.5 -0.9 48 10 17   100.36     LegendNANA
11:00 9.3 -1.0 48 13 33   100.35     LegendNANA
12:00 9.3 -2.2 44 12 35   100.31     LegendNANA
13:00 9.4 -2.6 43 13 24   100.33     LegendNANA
14:00 2.8 0.6 85 25 26   100.38     LegendNANA
15:00 3.0 0.7 85 23 26   100.39     LegendNANA
16:00 3.7 0.0 77 25 22   100.42     LegendNANA
17:00 2.5 0.7 88 24 33   100.45     LegendNANA
18:00 3.2 0.6 83 23 26   100.53     LegendNANA
19:00 2.3 0.9 90 24 15   100.60     LegendNANA
20:00 2.3 0.9 90 23 7   100.65     LegendNANA
21:00 2.8 0.8 87 18 4   100.67     LegendNANA
22:00 2.3 0.9 90 17 6   100.69     LegendNANA
23:00 2.2 0.9 91 3 6   100.66     LegendNANA

Notes on Data Quality.

Legend

  • E = Estimated
  • M = Missing
  • NA = Not Available
  • ‡ = Partner data that is not subject to review by the National Climate Archives
Date modified: